Temperature
-0 -1 -1 -1 -1 -2 -2 1 2 2 1 1 0 -1 -3 -4 -5 -5 -5 -5 -5 -5 -5 -5 -5 -5 -5 -5 -5 -5 -5 -5 -5 -5 -5 -5 -5 -5 -5 -4 -4 -4 -4 -4
-2 -2 -2 -2 -1 -2 -2 -1 -1 -1 -1 -1 -2 -4 -4 -5 -5 -6 -6 -6 -6 -6 -6 -6 -6 -6 -5 -5 -5 -6 -6 -6 -6 -6 -6 -6 -6 -6 -5 -5 -5 -5 -5 -5
-0 -3 -2 -0 -1 -2 -2 -3 -2 -1 -1 -3 -4 -4 -5 -5 -6 -6 -6 -6 -6 -6 -6 -6 -6 -6 -6 -6 -6 -6 -6 -6 -6 -6 -6 -6 -6 -6 -6 -6 -6 -6 -6 -6
-1 -2 -1 0 -4 -3 -3 -4 -4 -4 -4 -4 -4 -5 -6 -6 -6 -6 -6 -6 -6 -6 -6 -6 -6 -7 -7 -7 -7 -7 -7 -7 -7 -7 -7 -7 -7 -7 -7 -7 -7 -6 -6 -6
-1 -1 0 -1 -4 -5 -4 -4 -4 -5 -5 -5 -7 -6 -5 -6 -6 -7 -7 -7 -7 -7 -7 -7 -7 -7 -7 -7 -7 -7 -7 -7 -7 -7 -8 -8 -7 -7 -7 -7 -7 -7 -7 -7
-2 -1 -0 -0 -5 -7 -4 -3 -4 -6 -6 -6 -7 -4 -3 -6 -6 -7 -7 -7 -7 -7 -7 -7 -7 -7 -8 -8 -8 -8 -8 -8 -8 -8 -8 -8 -8 -8 -8 -8 -8 -8 -8 -8
-2 -2 -1 -4 -7 -6 -3 -2 -5 -6 -6 -7 -7 -6 -6 -7 -7 -7 -7 -7 -7 -7 -7 -7 -8 -8 -8 -8 -8 -8 -8 -8 -8 -9 -9 -9 -9 -9 -9 -9 -9 -9 -9 -8
-3 -3 -2 -6 -7 -5 -4 -5 -6 -6 -7 -7 -7 -7 -7 -7 -7 -8 -8 -8 -8 -8 -8 -8 -8 -8 -9 -9 -9 -9 -9 -9 -9 -9 -9 -9 -9 -9 -9 -10 -10 -9 -9 -9
-4 -3 -5 -7 -6 -6 -6 -6 -7 -7 -7 -8 -8 -8 -8 -8 -8 -8 -8 -8 -9 -9 -9 -9 -9 -9 -9 -9 -9 -9 -9 -9 -9 -9 -10 -10 -10 -10 -10 -10 -10 -10 -10 -10
-6 -6 -6 -7 -7 -7 -7 -7 -7 -8 -8 -8 -8 -9 -9 -9 -9 -9 -9 -9 -9 -9 -9 -9 -10 -10 -10 -10 -10 -10 -10 -10 -10 -10 -10 -10 -10 -10 -11 -11 -11 -11 -11 -11
-7 -6 -7 -7 -7 -7 -7 -8 -8 -8 -8 -9 -9 -9 -9 -10 -10 -10 -10 -10 -10 -10 -10 -10 -10 -10 -11 -11 -11 -11 -11 -11 -11 -11 -11 -11 -11 -11 -11 -11 -11 -11 -11 -12
-5 -6 -7 -7 -7 -8 -8 -8 -8 -9 -9 -9 -10 -10 -10 -10 -10 -11 -11 -11 -11 -11 -11 -11 -11 -11 -11 -11 -11 -11 -11 -11 -11 -11 -11 -12 -12 -12 -12 -12 -12 -12 -12 -12
-8 -8 -8 -8 -8 -9 -9 -9 -9 -9 -10 -10 -10 -11 -11 -11 -11 -11 -11 -12 -12 -12 -12 -12 -12 -12 -12 -12 -12 -12 -12 -12 -12 -12 -12 -12 -12 -12 -12 -12 -12 -12 -12 -12
-9 -9 -9 -9 -9 -10 -10 -10 -10 -10 -10 -11 -11 -11 -12 -12 -12 -12 -12 -12 -12 -12 -12 -12 -12 -12 -12 -13 -13 -13 -13 -13 -13 -13 -13 -13 -13 -13 -13 -13 -13 -13 -13 -13
-10 -10 -10 -10 -10 -10 -11 -11 -11 -11 -11 -11 -12 -12 -12 -12 -13 -13 -13 -13 -13 -13 -13 -13 -13 -13 -13 -13 -13 -13 -13 -13 -13 -13 -13 -13 -13 -13 -14 -14 -14 -13 -13 -13
-11 -11 -11 -11 -11 -11 -11 -11 -11 -12 -12 -12 -12 -13 -13 -13 -13 -13 -13 -13 -13 -13 -13 -14 -13 -14 -14 -14 -14 -14 -14 -14 -14 -14 -14 -14 -14 -14 -14 -14 -14 -14 -14 -14
-12 -12 -11 -12 -11 -12 -12 -12 -12 -13 -13 -13 -13 -13 -14 -14 -14 -14 -14 -14 -14 -14 -14 -14 -14 -14 -14 -14 -14 -14 -14 -14 -15 -15 -15 -15 -15 -14 -14 -15 -15 -15 -14 -14
-11 -12 -12 -12 -12 -12 -13 -13 -13 -13 -13 -14 -14 -14 -14 -14 -14 -14 -15 -15 -14 -14 -15 -15 -15 -15 -15 -15 -15 -15 -15 -15 -15 -15 -15 -15 -15 -15 -15 -15 -15 -15 -15 -15
-12 -12 -12 -12 -13 -13 -13 -13 -14 -14 -14 -14 -15 -15 -15 -15 -15 -15 -15 -15 -15 -15 -15 -15 -15 -15 -15 -15 -15 -15 -15 -15 -15 -15 -15 -15 -15 -15 -16 -15 -15 -15 -15 -15
-12 -12 -13 -13 -13 -13 -14 -14 -14 -14 -15 -15 -15 -15 -15 -15 -15 -15 -15 -15 -15 -16 -16 -16 -16 -16 -16 -16 -16 -16 -16 -16 -16 -16 -16 -16 -16 -16 -16 -16 -16 -16 -16 -15
-13 -13 -13 -14 -14 -14 -14 -15 -15 -15 -15 -15 -15 -15 -16 -16 -16 -16 -16 -16 -16 -16 -16 -16 -16 -16 -16 -16 -16 -16 -16 -16 -16 -16 -16 -16 -16 -16 -16 -16 -16 -16 -16 -16
-14 -14 -14 -14 -14 -15 -15 -15 -15 -15 -16 -16 -16 -16 -16 -16 -16 -16 -16 -16 -16 -16 -17 -17 -17 -17 -17 -17 -17 -17 -17 -17 -17 -17 -17 -17 -17 -17 -16 -16 -16 -16 -16 -16
-14 -14 -15 -15 -15 -15 -16 -16 -16 -16 -16 -16 -16 -17 -17 -17 -17 -17 -17 -17 -17 -17 -17 -17 -17 -17 -17 -17 -17 -17 -17 -17 -17 -17 -17 -17 -17 -17 -17 -17 -17 -17 -16 -16
-15 -15 -15 -16 -16 -16 -16 -16 -17 -17 -17 -17 -17 -17 -17 -17 -17 -17 -17 -17 -17 -18 -18 -17 -17 -17 -17 -17 -17 -17 -17 -17 -17 -17 -17 -17 -17 -17 -17 -17 -17 -17 -17 -17
-15 -16 -16 -16 -16 -17 -17 -17 -17 -17 -17 -17 -17 -17 -18 -18 -18 -18 -18 -18 -18 -18 -18 -18 -18 -18 -18 -18 -18 -18 -18 -18 -18 -18 -18 -18 -18 -18 -18 -17 -17 -17 -17 -17
-16 -16 -17 -17 -17 -17 -17 -17 -18 -18 -18 -18 -18 -18 -18 -18 -18 -18 -18 -18 -18 -18 -18 -18 -18 -18 -18 -18 -18 -18 -18 -18 -18 -18 -18 -18 -18 -18 -18 -18 -17 -17 -17 -17
-16 -17 -17 -17 -18 -18 -18 -18 -18 -18 -18 -18 -18 -18 -18 -18 -18 -18 -18 -18 -18 -18 -18 -18 -18 -18 -18 -18 -18 -18 -18 -18 -18 -18 -18 -18 -18 -18 -18 -18 -18 -17 -17 -17
Wind_Speed
7 5 4 7 8 9 12 11 11 10 11 12 9 6 5 4 3 2 3 3 3 3 3 3 3 3 3 3 3 3 3 3 3 4 4 4 4 4 4 4 4 5 5 5
5 5 5 8 11 12 13 12 13 14 14 9 6 4 4 4 3 4 4 5 5 4 4 4 4 4 3 3 3 3 3 4 4 4 4 4 4 4 4 4 4 5 5 5
5 2 5 9 10 11 8 8 9 12 10 4 4 6 6 5 4 5 6 5 5 5 5 5 5 4 4 4 4 3 4 4 4 4 4 4 4 4 4 5 5 5 5 6
3 2 9 4 1 5 8 8 9 8 7 6 7 6 6 5 5 6 5 5 6 5 5 5 5 4 4 4 4 4 4 4 4 4 4 4 4 5 5 5 5 5 5 6
3 5 9 4 3 4 6 6 7 9 9 8 4 4 5 3 4 5 5 5 5 5 5 5 4 4 3 4 4 4 4 4 4 4 4 5 5 5 5 5 5 5 5 6
5 6 7 2 3 2 3 5 4 6 7 5 2 5 4 1 3 5 5 4 4 3 3 4 4 3 3 4 4 5 5 5 5 5 5 5 6 6 5 5 5 5 5 5
9 8 7 1 3 5 5 3 1 4 5 4 5 5 4 4 4 5 5 4 3 3 3 3 3 3 4 4 5 5 5 5 5 5 5 6 5 5 5 5 5 5 5 5
6 8 7 4 7 6 3 1 1 2 3 5 6 6 5 5 5 5 5 4 3 3 3 3 3 3 4 5 5 4 5 5 5 5 5 4 5 5 5 4 5 5 5 5
8 6 1 6 5 3 1 2 2 3 3 4 5 5 5 5 5 5 4 4 3 3 4 4 3 3 5 5 4 4 4 5 5 5 4 4 4 5 4 4 4 4 4 5
6 8 6 5 6 4 3 3 3 2 3 3 5 5 5 5 5 5 4 4 3 3 4 4 4 4 5 5 4 4 5 5 4 4 4 4 4 4 4 4 4 4 5 5
7 7 5 5 6 6 5 3 3 3 3 4 4 5 5 5 5 5 5 4 3 4 5 6 5 5 5 4 3 4 5 5 4 4 4 4 4 5 5 6 6 6 6 6
7 5 5 4 2 3 3 4 4 3 4 4 4 5 4 5 5 4 4 4 4 5 5 6 5 5 5 4 4 4 5 5 4 4 4 4 4 4 6 7 8 9 9 9
5 3 3 3 2 2 3 3 3 4 4 4 3 3 4 4 4 4 5 5 5 6 6 6 5 6 5 4 4 5 5 5 4 4 4 4 4 4 4 5 7 8 9 9
4 3 3 3 3 2 2 2 2 2 3 3 2 3 3 4 4 5 5 5 5 6 6 5 6 6 6 5 5 5 5 6 5 4 4 4 4 4 4 5 5 5 6 8
4 4 4 2 1 1 1 1 1 2 2 2 2 2 3 4 5 5 5 5 5 5 5 5 6 6 6 5 5 5 5 4 4 4 4 4 4 4 4 5 5 5 5 6
2 2 2 3 3 2 2 2 3 3 3 3 3 3 4 4 5 6 5 5 5 6 6 6 6 7 5 5 5 4 4 6 5 4 4 4 4 4 4 4 5 5 5 5
2 3 3 3 3 3 3 3 4 4 3 4 4 4 4 4 5 5 5 5 5 6 7 7 7 6 6 5 5 4 4 5 6 5 4 4 4 4 4 5 5 5 5 6
3 3 3 3 3 3 3 3 3 3 3 3 3 4 4 4 5 6 6 6 5 6 6 6 6 6 5 5 4 4 4 4 4 4 4 4 4 4 5 5 5 6 6 6
1 2 2 2 2 2 2 3 3 3 3 3 3 4 5 5 6 6 6 5 5 6 6 6 8 6 5 5 5 4 4 4 4 4 4 5 5 5 5 5 6 6 6 5
1 1 1 1 1 1 1 2 2 2 3 3 3 4 5 5 5 5 5 6 5 5 6 7 6 6 5 5 5 4 4 5 5 5 5 5 5 5 5 5 6 6 6 6
1 1 1 1 1 2 2 2 2 3 3 3 3 4 5 6 5 5 5 5 5 5 6 8 5 5 4 4 5 4 4 5 5 5 5 5 5 5 6 6 6 6 6 6
1 1 1 1 1 2 2 2 2 3 3 3 4 4 5 6 6 5 5 5 6 8 6 5 5 6 6 6 3 3 4 4 4 4 5 5 5 5 6 6 6 6 6 6
1 1 1 1 1 2 3 3 2 3 3 4 4 4 5 5 4 4 5 4 5 7 6 5 7 8 8 4 3 4 4 4 5 5 5 5 5 6 6 7 6 6 6 6
1 1 1 1 1 1 2 3 3 3 3 4 4 4 4 4 4 4 5 8 8 8 6 7 9 9 8 3 4 4 5 5 5 5 5 5 5 6 6 6 7 7 7 8
0 0 1 1 1 2 2 3 3 3 3 3 4 4 4 3 4 5 5 6 8 8 6 7 9 9 6 4 4 5 5 5 6 6 6 6 6 6 6 6 7 7 7 7
0 1 1 1 2 2 2 2 3 3 3 3 4 4 4 4 4 4 4 5 7 7 6 5 6 6 5 5 5 5 5 6 7 6 6 6 7 7 7 7 8 7 7 8
0 1 1 1 2 2 2 2 3 3 4 4 4 4 4 4 4 5 5 5 5 5 5 5 5 5 5 5 5 5 5 5 6 6 6 6 6 6 7 8 7 7 8 8
Wind_Direction
266 278 253 248 242 219 219 232 244 251 249 265 279 283 288 287 273 266 271 274 267 269 277 286 291 290 295 298 298 296 290 286 287 291 291 292 292 291 290 287 285 281 275 268
262 259 262 266 254 236 234 240 245 259 265 275 281 287 281 272 257 259 270 275 273 269 273 276 277 281 284 286 288 285 280 282 288 290 291 293 293 292 288 286 282 279 275 269
257 283 289 261 240 220 216 218 222 241 253 271 269 265 268 263 248 259 272 277 276 269 265 266 265 267 269 275 277 273 274 280 286 290 292 294 295 293 287 283 281 277 275 272
254 257 244 251 111 209 217 234 228 241 261 265 265 275 271 261 259 270 279 281 280 276 270 270 268 265 267 269 264 262 267 274 280 285 288 295 296 291 288 284 279 277 276 277
217 245 266 266 208 186 207 250 231 235 256 271 287 289 265 243 261 273 281 283 279 274 270 266 260 255 256 258 257 259 265 272 278 277 281 286 286 287 285 282 279 278 277 278
215 238 253 250 141 153 178 255 221 218 244 260 238 271 287 315 294 294 300 293 285 281 277 263 258 245 240 248 253 260 268 273 275 273 271 274 277 282 282 278 276 278 277 278
226 241 260 250 148 161 207 262 165 208 229 225 224 261 303 311 301 296 298 296 291 280 271 265 258 239 242 250 257 268 276 275 273 271 269 270 273 274 274 275 275 274 274 277
205 225 247 145 153 193 240 23 187 224 233 241 254 273 285 298 302 303 304 302 294 284 285 282 259 241 251 260 273 278 274 273 272 271 272 270 271 273 271 269 267 270 273 276
207 225 268 167 199 225 252 243 249 249 250 251 260 270 285 293 296 298 298 296 290 281 288 290 275 255 261 277 284 277 272 272 274 276 271 266 263 265 265 261 262 269 271 274
242 254 255 231 243 258 255 255 272 265 261 249 255 269 280 285 289 294 296 294 289 281 282 287 288 280 276 284 280 267 266 270 271 272 273 267 261 256 255 256 260 265 269 273
244 262 276 255 244 254 259 261 266 277 271 260 254 266 272 277 283 289 293 295 285 276 279 285 290 287 288 283 271 266 265 266 268 267 268 267 263 259 259 257 257 262 266 271
240 234 231 243 253 243 243 253 257 266 277 270 257 260 270 275 281 287 291 294 288 284 284 288 290 288 289 282 267 262 265 265 265 266 266 265 269 276 270 272 274 273 274 276
252 269 255 257 256 251 248 258 264 252 254 268 270 266 270 279 286 289 289 289 286 285 285 287 288 287 287 281 267 256 260 265 265 263 261 263 263 268 282 287 283 280 281 280
249 247 251 241 251 256 251 273 278 273 269 267 273 281 280 285 288 289 290 294 293 289 287 286 284 285 289 282 269 261 262 262 262 262 262 262 261 264 270 278 287 288 289 288
253 246 250 259 261 269 265 267 274 283 292 300 292 283 285 286 289 293 297 301 298 292 290 289 286 288 294 284 271 265 263 261 263 265 265 264 265 267 271 275 279 284 290 293
280 264 242 245 253 261 259 258 263 274 283 289 290 291 292 289 291 293 296 299 295 294 294 289 287 291 294 283 274 268 262 264 269 268 266 266 266 268 271 275 279 282 285 292
230 255 243 248 255 262 264 261 259 267 273 276 285 295 299 299 299 299 302 302 293 288 288 286 287 292 288 278 270 267 267 266 268 269 265 265 266 267 269 272 275 280 284 288
243 252 247 244 245 255 270 273 268 270 274 283 293 295 293 293 295 300 304 306 303 298 293 290 292 293 286 277 269 266 265 266 265 265 267 267 269 269 271 273 276 281 287 291
265 263 264 256 250 246 264 272 277 280 283 284 287 290 291 289 289 294 300 299 296 298 303 302 302 300 288 280 279 268 266 268 270 269 268 272 275 273 272 274 276 279 284 289
24 26 31 6 356 280 272 286 292 291 290 289 290 294 298 299 298 297 295 288 281 285 293 297 300 296 290 282 281 269 264 266 268 270 270 270 272 274 274 275 276 279 282 284
26 36 26 356 341 322 298 289 286 290 299 296 287 290 295 300 300 296 293 297 300 297 294 297 301 296 292 288 283 274 269 269 270 271 271 272 273 275 276 278 278 279 281 283
355 354 334 331 330 326 327 317 299 297 304 306 301 297 299 303 306 302 286 282 294 305 309 300 299 300 303 297 289 284 280 277 276 276 275 274 273 275 277 279 279 280 282 282
325 323 319 316 314 321 330 328 317 306 303 303 302 300 299 301 305 304 307 306 303 307 312 302 304 308 311 306 292 285 281 279 278 277 276 276 276 276 277 279 280 281 283 284
334 337 327 331 343 340 332 329 323 313 304 299 296 297 298 302 305 297 293 306 314 314 311 306 313 316 320 310 295 288 284 281 282 282 281 280 279 278 279 280 281 284 284 286
313 321 331 338 332 320 316 319 322 319 316 312 310 310 303 295 294 303 307 311 317 319 315 316 318 321 321 307 299 292 288 283 282 281 279 281 281 282 281 282 283 285 286 286
285 293 292 291 291 296 304 309 312 313 313 312 315 316 312 308 302 302 304 309 311 315 314 311 314 316 311 303 298 295 291 291 292 290 284 282 282 283 283 284 285 285 286 286
331 322 322 327 324 319 312 305 303 306 307 304 306 310 312 313 313 313 312 311 312 310 308 307 308 305 302 299 297 294 291 288 287 285 285 283 282 281 283 284 285 286 286 285
Height
1502 1502 1503 1501 1502 1505 1503 1493 1488 1481 1484 1482 1485 1488 1489 1488 1488 1487 1487 1486 1485 1485 1484 1483 1483 1482 1481 1481 1480 1480 1479 1479 1478 1478 1477 1477 1477 1476 1476 1476 1476 1475 1475 1475
1504 1503 1503 1501 1496 1497 1498 1496 1492 1488 1485 1485 1486 1487 1487 1486 1485 1485 1484 1484 1483 1482 1481 1480 1480 1479 1478 1478 1477 1477 1476 1475 1475 1474 1474 1473 1473 1473 1472 1472 1471 1471 1470 1470
1494 1503 1501 1489 1487 1490 1491 1491 1490 1484 1482 1484 1485 1484 1484 1483 1483 1482 1481 1480 1479 1479 1478 1477 1476 1475 1475 1474 1474 1473 1473 1472 1471 1471 1470 1470 1469 1468 1468 1467 1466 1466 1465 1465
1497 1500 1493 1478 1488 1486 1486 1486 1487 1485 1483 1483 1483 1482 1481 1480 1480 1479 1478 1477 1476 1475 1474 1474 1473 1472 1472 1471 1470 1470 1469 1468 1468 1467 1466 1465 1465 1464 1463 1462 1462 1461 1460 1460
1495 1488 1476 1480 1485 1487 1486 1482 1482 1482 1481 1481 1481 1479 1477 1477 1477 1476 1475 1474 1473 1472 1471 1470 1469 1468 1468 1467 1467 1466 1465 1464 1464 1463 1462 1461 1460 1459 1459 1458 1457 1456 1456 1455
1494 1486 1474 1473 1484 1485 1486 1479 1478 1479 1479 1479 1479 1476 1473 1474 1473 1472 1471 1470 1469 1468 1467 1466 1465 1464 1464 1463 1463 1462 1461 1461 1460 1459 1458 1457 1456 1455 1454 1454 1453 1452 1451 1450
1489 1482 1473 1480 1483 1485 1480 1472 1476 1475 1476 1476 1476 1475 1474 1471 1470 1469 1468 1467 1466 1465 1464 1463 1462 1461 1460 1459 1459 1458 1458 1457 1456 1455 1454 1453 1452 1451 1450 1449 1448 1447 1446 1445
1487 1482 1474 1479 1481 1479 1473 1474 1473 1473 1474 1473 1473 1471 1470 1469 1467 1466 1464 1463 1462 1461 1460 1459 1458 1457 1456 1456 1455 1455 1454 1453 1452 1451 1450 1449 1448 1447 1446 1445 1444 1443 1442 1441
1479 1474 1473 1474 1473 1473 1472 1472 1472 1472 1471 1471 1469 1468 1467 1466 1464 1463 1462 1460 1459 1458 1457 1456 1455 1454 1453 1452 1452 1451 1450 1449 1448 1447 1446 1445 1444 1443 1442 1441 1440 1438 1437 1436
1478 1472 1472 1472 1470 1470 1470 1470 1469 1469 1468 1467 1466 1465 1464 1463 1461 1460 1459 1457 1456 1455 1453 1452 1452 1451 1450 1449 1448 1446 1445 1444 1443 1443 1442 1441 1440 1439 1438 1437 1435 1434 1433 1432
1474 1470 1470 1468 1468 1468 1467 1467 1466 1466 1465 1464 1463 1462 1461 1459 1458 1457 1455 1454 1453 1451 1450 1449 1448 1447 1446 1445 1444 1442 1441 1440 1439 1438 1437 1436 1435 1434 1433 1433 1432 1431 1429 1428
1465 1465 1467 1465 1465 1465 1465 1464 1463 1462 1461 1461 1460 1458 1457 1456 1455 1454 1452 1451 1450 1448 1447 1445 1444 1443 1442 1441 1439 1438 1437 1436 1435 1434 1433 1432 1431 1430 1428 1428 1427 1426 1425 1424
1463 1462 1462 1462 1462 1462 1461 1461 1460 1459 1458 1457 1457 1456 1454 1453 1452 1450 1449 1448 1446 1445 1443 1441 1440 1439 1438 1437 1435 1434 1433 1432 1431 1430 1429 1428 1426 1425 1424 1423 1423 1421 1420 1419
1460 1460 1460 1459 1459 1458 1458 1457 1457 1456 1455 1454 1453 1452 1451 1450 1448 1447 1445 1444 1443 1441 1439 1438 1436 1435 1434 1433 1431 1430 1429 1428 1427 1426 1425 1424 1423 1422 1420 1419 1417 1416 1415 1414
1457 1457 1457 1456 1455 1455 1455 1454 1453 1452 1452 1451 1450 1449 1448 1446 1445 1443 1442 1440 1439 1437 1435 1434 1432 1431 1430 1428 1427 1426 1425 1424 1423 1422 1421 1420 1419 1418 1417 1415 1414 1412 1411 1410
1454 1454 1453 1453 1452 1452 1451 1451 1450 1449 1448 1447 1447 1446 1444 1443 1441 1440 1438 1437 1435 1433 1432 1430 1428 1427 1426 1424 1423 1422 1421 1420 1419 1418 1417 1416 1415 1414 1413 1411 1410 1408 1407 1405
1451 1450 1450 1450 1449 1449 1448 1448 1447 1446 1445 1444 1443 1442 1441 1439 1438 1436 1435 1433 1432 1430 1428 1426 1424 1423 1422 1421 1420 1418 1417 1416 1416 1414 1413 1412 1411 1410 1409 1407 1406 1404 1403 1402
1448 1448 1448 1447 1447 1446 1446 1445 1444 1444 1443 1442 1440 1439 1438 1436 1434 1433 1431 1429 1428 1426 1425 1423 1421 1420 1418 1417 1416 1415 1414 1413 1412 1411 1409 1408 1407 1406 1405 1403 1402 1400 1399 1397
1446 1446 1445 1445 1444 1444 1443 1443 1442 1441 1440 1439 1437 1436 1435 1433 1432 1430 1428 1426 1424 1422 1421 1420 1418 1416 1415 1414 1413 1411 1410 1409 1408 1407 1406 1404 1403 1402 1400 1399 1398 1396 1394 1393
1444 1444 1443 1443 1442 1442 1441 1440 1439 1438 1437 1436 1435 1433 1432 1430 1428 1426 1425 1423 1421 1419 1418 1416 1415 1413 1412 1410 1409 1408 1407 1405 1404 1403 1402 1400 1399 1397 1396 1395 1393 1392 1390 1388
1442 1441 1441 1440 1440 1439 1439 1438 1437 1436 1435 1434 1432 1431 1429 1427 1426 1424 1421 1419 1418 1417 1415 1414 1412 1410 1409 1407 1406 1405 1403 1402 1400 1399 1398 1396 1395 1393 1392 1390 1389 1387 1385 1384
1440 1439 1439 1438 1438 1437 1437 1436 1435 1434 1432 1431 1430 1428 1426 1425 1423 1421 1419 1417 1415 1414 1412 1410 1409 1408 1406 1405 1403 1401 1400 1398 1397 1395 1394 1392 1391 1389 1387 1386 1384 1382 1381 1379
1438 1438 1437 1436 1436 1435 1434 1434 1433 1431 1430 1429 1427 1426 1424 1422 1420 1418 1416 1415 1413 1411 1409 1408 1406 1405 1403 1402 1400 1398 1396 1395 1393 1391 1390 1388 1387 1385 1383 1381 1380 1378 1376 1375
1436 1436 1435 1435 1434 1433 1432 1431 1430 1429 1428 1427 1425 1424 1422 1420 1418 1416 1414 1412 1410 1409 1407 1405 1403 1402 1400 1398 1396 1394 1393 1391 1389 1388 1386 1384 1383 1381 1379 1377 1375 1374 1372 1370
1435 1434 1434 1433 1432 1431 1430 1429 1428 1427 1426 1425 1423 1422 1420 1418 1416 1414 1412 1410 1408 1406 1404 1402 1400 1398 1397 1394 1393 1391 1389 1387 1386 1384 1382 1380 1379 1377 1375 1373 1371 1370 1368 1366
1433 1433 1432 1432 1431 1430 1429 1428 1426 1425 1424 1422 1421 1419 1417 1416 1414 1411 1409 1407 1405 1403 1401 1399 1397 1395 1393 1391 1389 1387 1385 1383 1381 1380 1378 1376 1375 1373 1371 1369 1367 1365 1363 1362
1432 1431 1431 1430 1429 1428 1427 1426 1425 1423 1422 1420 1418 1417 1415 1413 1411 1409 1406 1404 1402 1400 1398 1395 1393 1391 1389 1387 1385 1383 1381 1379 1377 1375 1374 1372 1370 1369 1367 1365 1363 1361 1359 1357